Theta_e
325 325 326 327 327 327 327 327 327 327 326 326 327 327 328 329 329 330 331 331 331 330 328 326 324 324 324 328 332 332 331 331 331 330 329 331 331 329 327 327 328 326 326 325 324 328 331 332 332 331 330 330 330 328 328 327 325 324 325 326 326 325 323 322 322 322 322 322 322 322 322 322 321 319 317 317 313 312 315 316 318 318 317 317 316
325 325 325 326 327 327 327 326 326 327 327 326 326 326 327 328 328 328 328 329 330 331 331 330 327 327 327 329 331 330 330 330 330 330 329 331 331 329 328 328 329 326 324 324 324 327 331 332 332 331 331 330 330 329 329 327 324 323 325 325 325 325 323 321 322 321 320 321 321 321 322 323 322 321 319 318 315 312 313 315 316 316 315 317 318
325 325 325 325 326 327 327 327 327 327 327 327 327 326 327 327 328 326 327 328 329 330 331 331 330 331 330 330 330 330 330 330 330 330 330 331 330 328 329 329 330 327 324 323 324 326 330 332 331 331 331 330 330 329 328 327 324 323 324 325 325 325 324 321 320 320 319 320 321 321 322 323 323 321 320 319 317 314 314 314 314 314 313 316 318
324 324 324 325 325 325 326 327 328 328 328 328 328 327 327 328 328 327 327 329 330 330 330 330 331 331 330 330 330 330 330 330 330 330 330 331 330 328 330 330 330 328 325 323 324 325 328 331 331 331 331 330 330 329 329 329 326 323 322 324 325 325 325 323 319 318 319 320 320 321 322 322 323 322 321 320 319 317 315 314 313 313 313 315 316
323 323 323 324 324 325 325 326 327 328 329 329 329 328 328 329 329 328 329 330 331 331 330 331 331 331 331 330 331 331 330 330 330 330 330 331 330 328 330 331 330 328 325 323 324 325 327 329 331 331 330 330 330 329 330 329 328 326 320 321 326 326 326 325 321 318 320 321 319 321 322 320 320 320 320 320 319 318 317 315 313 311 312 314 316
321 322 322 322 323 323 324 325 326 327 328 328 329 329 328 329 329 329 330 330 331 330 329 330 331 332 332 331 332 331 330 329 329 330 329 330 330 328 330 331 330 327 324 323 324 325 326 327 329 330 330 330 330 329 329 328 327 328 321 319 326 327 326 327 324 321 321 322 320 319 320 319 319 319 319 319 319 319 319 317 315 312 311 313 315
320 320 320 321 321 322 323 324 325 326 327 328 329 329 329 329 328 328 329 330 330 329 329 329 330 331 332 332 332 332 330 329 330 330 330 331 330 328 330 331 330 327 324 323 323 325 326 326 327 329 329 329 329 327 327 326 325 328 324 320 326 327 326 327 327 325 323 323 322 319 319 319 320 320 320 319 319 319 319 320 318 316 313 311 312
319 319 319 320 320 321 322 322 323 324 326 328 329 329 330 329 329 329 330 330 330 329 329 329 329 330 331 332 332 331 330 328 329 330 331 332 330 329 331 331 330 327 324 322 321 323 325 326 327 327 328 328 327 325 325 325 325 326 325 323 325 327 326 326 327 327 326 325 324 321 318 319 320 321 322 321 319 318 318 319 320 319 316 312 311
317 318 318 319 320 321 322 322 323 323 325 327 329 329 330 330 330 330 330 331 330 329 329 330 329 329 331 332 332 331 329 328 329 331 332 332 330 330 331 331 331 329 325 322 321 322 323 326 327 327 327 327 325 324 324 326 325 326 326 325 325 327 327 326 327 328 327 326 326 324 320 318 319 321 322 323 321 319 318 317 318 320 319 316 313
316 316 317 318 320 321 322 322 323 323 324 326 328 329 330 330 331 331 331 331 330 329 330 330 330 329 330 332 332 331 330 329 331 332 332 331 330 330 331 331 331 331 327 322 320 321 322 324 327 327 327 327 325 324 324 326 326 326 327 326 326 327 327 327 326 327 327 327 327 326 324 320 319 320 322 323 323 322 320 318 317 318 320 318 316
315 315 316 318 319 321 322 322 322 323 323 325 326 327 328 330 330 330 330 331 330 329 329 331 331 330 330 331 332 332 331 330 332 333 332 332 331 331 331 330 331 332 330 325 321 320 322 323 326 327 327 327 327 325 324 325 327 327 328 327 327 328 327 327 326 326 327 327 327 326 326 324 321 320 321 323 324 324 322 320 318 317 318 318 317
314 315 316 318 319 320 321 321 321 322 323 323 324 325 326 328 329 330 330 330 330 330 330 331 331 330 330 331 332 333 333 332 331 332 332 332 331 331 331 330 331 332 331 329 324 321 321 322 324 325 326 327 328 327 325 325 326 327 328 328 328 329 328 327 327 326 326 327 327 326 326 326 325 322 322 323 324 324 324 322 320 318 318 318 318
313 315 316 318 318 319 320 320 321 321 321 321 322 323 323 325 327 328 329 330 330 330 330 330 330 330 330 330 332 333 334 332 331 331 332 332 331 332 332 331 330 331 331 331 328 323 321 322 322 323 325 326 327 328 327 326 325 325 327 328 328 328 328 328 327 327 326 327 327 326 326 326 326 325 324 324 324 325 325 324 321 319 319 319 319
314 315 316 317 318 319 319 319 319 319 319 319 319 320 321 322 323 325 327 329 330 330 330 330 329 329 330 330 331 332 333 333 332 332 332 332 332 331 332 332 331 331 330 331 331 328 324 322 322 322 323 325 327 328 328 327 326 326 327 328 328 328 328 329 328 327 327 326 326 326 327 326 325 326 325 325 325 325 325 325 323 320 319 320 320
316 316 316 317 318 318 319 318 318 318 318 318 318 318 318 319 320 322 325 327 329 330 330 330 330 330 330 331 330 331 332 332 332 332 332 332 332 332 332 331 331 331 330 331 332 331 329 326 324 322 322 323 325 327 328 328 327 327 328 329 329 329 329 329 329 329 328 326 325 326 326 326 325 325 325 325 326 325 326 326 325 322 320 321 321
316 316 316 317 317 318 318 318 317 318 319 319 318 318 317 318 318 319 322 325 328 330 330 330 331 330 330 331 330 330 330 330 330 330 331 331 331 331 332 332 331 331 331 331 331 332 332 330 328 326 325 324 324 325 327 328 328 328 328 328 328 329 329 329 329 329 329 328 326 325 325 326 326 325 326 325 325 326 326 326 326 324 322 321 322
316 316 316 316 317 317 317 317 318 319 319 319 319 319 318 318 319 319 320 322 325 328 329 330 330 331 330 330 329 329 329 329 329 329 330 331 331 331 332 332 332 332 331 331 331 331 333 333 332 331 330 328 324 323 325 327 328 328 328 327 327 328 329 329 330 330 329 329 328 327 325 325 325 326 326 325 325 325 326 326 326 325 322 322 322
316 316 316 317 317 317 317 317 318 318 319 319 319 320 319 319 320 320 320 321 324 326 328 329 330 330 331 330 329 329 329 330 330 330 329 330 331 331 331 332 332 333 332 331 331 331 331 332 332 332 332 331 328 324 322 324 326 327 327 327 327 328 328 329 330 330 330 329 329 329 328 326 326 326 326 326 325 325 325 325 326 325 323 322 322
316 316 316 317 316 317 317 316 317 318 318 319 319 319 320 320 321 321 321 321 323 325 326 328 329 329 330 330 330 330 330 330 330 330 330 330 330 331 331 331 331 331 330 330 332 331 331 331 330 330 331 332 331 329 327 325 325 324 324 325 326 328 328 329 329 329 329 329 330 330 330 328 327 326 326 327 326 326 325 324 325 325 323 322 322
316 316 315 316 316 316 316 316 316 317 317 318 318 318 319 320 320 321 321 322 324 325 325 326 327 328 329 329 330 330 329 329 329 330 330 330 329 330 330 331 330 330 329 329 331 331 331 331 330 330 330 331 332 333 332 331 329 327 325 324 324 326 327 328 328 328 329 329 329 330 330 330 329 328 327 327 327 326 326 325 324 324 323 322 322
316 317 316 316 317 316 317 316 316 316 316 317 317 317 317 318 318 320 320 321 323 324 325 326 326 326 327 328 329 329 329 329 329 329 329 329 330 329 330 330 330 330 330 330 330 330 331 331 331 331 330 330 331 332 332 332 331 331 330 328 326 325 325 325 326 327 327 328 329 330 330 330 330 329 328 327 327 327 327 326 325 325 324 323 323
315 316 317 317 317 317 317 317 316 316 316 316 316 316 317 317 317 319 319 320 320 323 325 326 326 326 326 327 328 328 329 329 329 329 329 330 330 329 329 330 330 330 330 330 330 330 331 331 332 332 331 330 331 332 332 331 330 330 331 331 330 329 328 327 325 325 326 327 329 329 330 330 330 330 330 329 328 328 328 327 326 326 325 325 324
315 316 316 317 317 317 317 317 316 316 317 316 316 316 316 316 317 317 318 319 320 320 322 324 326 326 326 327 327 327 328 328 328 329 329 329 329 329 329 329 330 329 329 330 330 330 330 331 331 332 332 331 331 331 331 331 331 330 330 331 331 331 331 330 328 328 328 329 329 329 329 329 330 330 330 330 329 329 328 328 328 327 326 325 325
316 316 317 316 317 317 317 317 316 316 316 316 315 315 316 316 316 315 316 316 318 319 320 322 323 324 325 326 326 326 327 328 328 328 328 328 329 329 329 329 329 329 329 329 329 329 329 330 331 331 332 332 332 332 331 331 331 331 331 331 330 330 331 331 331 331 331 331 331 330 329 329 330 330 330 330 330 329 329 329 329 328 327 326 326
316 317 317 317 317 316 316 317 316 315 315 314 314 314 315 315 316 315 315 315 315 317 318 319 320 322 323 324 325 325 326 327 327 328 327 327 328 329 329 329 329 329 329 329 329 328 328 329 330 330 331 332 332 332 332 331 332 332 331 332 331 331 331 331 331 331 331 331 331 330 330 330 330 330 330 330 330 330 329 330 329 328 328 327 326
314 315 315 316 316 315 315 315 315 314 314 313 313 313 313 314 314 314 315 315 314 315 316 317 318 320 321 322 323 324 324 325 325 326 327 327 328 328 328 328 329 329 329 329 328 328 328 328 328 329 329 330 330 331 331 330 331 331 331 332 332 332 331 331 331 331 330 330 329 329 329 329 330 330 330 330 330 330 330 330 330 329 328 327 327
312 313 313 314 315 315 315 315 314 314 314 313 313 313 312 312 312 313 314 315 314 314 314 315 317 318 320 321 322 323 323 324 324 324 325 326 327 327 328 328 328 328 329 328 328 327 327 328 328 328 328 328 328 328 328 328 329 330 331 331 332 332 332 332 332 332 331 330 329 328 327 327 329 330 330 330 330 330 330 330 330 330 328 327 327
310 311 312 313 313 314 315 315 315 314 314 313 313 312 312 311 312 312 313 314 314 314 314 313 314 316 318 320 320 322 323 323 323 323 323 324 326 327 327 328 327 327 327 328 328 327 327 327 327 328 328 328 328 328 328 328 328 328 329 329 329 330 331 332 332 332 332 332 331 330 328 327 327 328 329 329 330 330 330 329 329 330 329 328 327
310 310 312 313 313 313 315 315 315 314 313 313 312 311 311 311 312 312 313 313 313 314 314 313 313 314 316 318 320 321 321 322 323 323 323 323 324 325 326 326 327 327 327 327 327 327 327 327 327 327 327 327 328 328 328 328 328 328 328 328 328 328 330 331 332 331 332 332 332 332 331 329 328 327 327 328 329 329 329 329 329 329 329 328 327
310 310 311 313 314 314 315 315 314 314 313 312 311 311 311 311 312 312 312 312 312 312 313 313 313 313 314 316 318 319 319 320 321 322 322 322 323 324 324 325 326 327 328 328 328 327 326 327 327 327 327 327 328 328 328 328 328 329 329 329 329 329 329 330 331 331 331 332 332 332 332 332 330 329 327 327 328 329 329 329 328 328 328 328 327
310 310 310 312 313 314 314 314 314 313 312 312 311 311 310 310 311 311 311 311 311 311 312 312 312 312 313 314 315 317 318 318 318 320 321 321 321 322 323 324 324 325 326 327 328 327 326 327 327 327 326 327 328 328 328 328 328 328 328 328 328 329 330 331 331 331 331 331 331 331 332 332 332 331 329 328 328 329 329 328 327 327 328 328 327
310 310 311 312 313 313 314 314 314 313 312 311 311 311 310 310 311 311 311 311 311 311 311 311 311 311 312 312 314 316 318 317 317 318 319 320 320 321 323 323 323 323 325 326 327 327 327 327 327 327 327 327 327 328 328 328 328 327 327 328 328 328 329 330 331 332 332 331 331 330 331 332 332 332 331 330 329 329 330 329 327 326 326 327 327
310 309 311 312 313 313 314 314 313 313 312 311 311 311 311 311 311 311 311 311 311 311 311 311 311 311 311 311 312 315 317 317 317 318 320 320 320 321 322 323 323 323 324 325 325 326 326 326 327 327 327 327 327 328 328 328 328 328 327 329 330 329 328 328 329 330 331 331 331 331 331 331 332 332 332 332 331 331 331 330 328 326 325 326 326
310 309 310 312 313 313 313 313 313 313 313 312 312 311 311 311 311 311 311 311 311 311 311 311 311 311 311 311 311 313 316 318 318 319 320 320 320 322 323 323 323 323 323 324 324 324 325 325 325 326 327 327 327 327 327 327 327 328 328 329 330 331 330 329 328 328 328 329 330 331 331 331 331 332 332 332 332 331 331 331 330 328 327 327 327
311 309 309 310 312 312 313 313 312 313 313 312 312 312 311 311 311 312 311 311 311 311 310 311 311 311 312 312 311 312 314 317 318 318 319 320 321 322 323 323 324 324 324 324 324 324 325 325 325 326 327 327 327 326 327 327 328 328 328 329 330 331 331 331 329 328 328 328 329 330 331 331 331 331 332 332 332 331 331 331 331 330 329 329 329
311 309 309 310 310 311 311 312 311 312 312 312 312 312 312 311 311 311 311 311 311 311 310 310 311 311 312 313 312 311 312 315 316 317 318 319 320 321 322 323 324 324 325 325 325 325 326 326 326 326 327 326 326 326 326 327 327 328 328 328 329 330 330 330 330 329 330 330 330 331 332 331 331 331 331 332 332 331 331 332 331 331 330 330 330
311 310 309 309 310 310 310 311 311 311 311 312 312 312 311 311 311 311 311 311 311 310 310 310 310 311 312 313 312 311 312 313 315 316 318 319 320 321 322 323 324 324 325 325 326 326 327 327 326 326 326 326 326 326 326 326 327 328 328 328 328 329 329 330 329 329 330 330 331 331 331 332 332 332 331 331 331 331 332 332 332 331 331 330 330
311 310 309 309 310 310 309 309 310 310 311 312 312 312 311 310 310 310 310 311 311 310 310 310 310 312 312 312 311 311 312 313 314 316 318 319 320 320 321 322 323 324 325 325 325 326 327 327 326 326 326 326 326 326 326 327 327 327 328 328 328 328 329 329 329 329 328 328 328 328 329 330 331 332 332 332 332 332 333 332 332 331 331 330 329
311 311 310 310 310 310 309 308 309 310 311 311 312 312 311 310 310 310 310 311 311 310 310 310 311 312 312 312 311 311 312 314 315 316 317 317 318 319 321 322 323 324 324 325 325 325 325 325 326 326 326 326 326 326 326 327 328 328 328 328 328 328 328 328 328 329 328 328 328 327 327 328 329 331 332 333 333 333 333 333 332 331 331 331 329
311 311 310 310 310 309 308 307 308 310 311 311 311 311 311 310 309 309 310 311 311 310 310 309 311 313 313 312 312 313 314 315 315 316 316 317 318 320 321 322 323 323 324 324 324 325 325 325 325 326 326 325 325 325 326 327 328 328 328 328 328 328 328 328 328 328 328 328 328 327 327 328 330 331 332 333 333 333 333 333 332 332 332 332 330
311 311 310 310 310 309 308 306 307 309 310 310 310 310 311 310 309 309 310 311 311 310 309 309 311 313 313 313 314 315 315 316 316 317 317 318 319 320 321 322 322 323 323 324 324 324 324 325 325 325 325 325 325 325 326 327 328 328 328 328 328 328 328 328 327 328 328 328 328 328 327 328 329 330 331 332 332 332 332 333 332 332 333 332 330
311 311 311 310 309 309 308 306 307 308 308 308 309 309 310 310 309 310 311 311 310 310 309 309 310 313 314 313 314 316 316 317 317 317 318 318 319 319 320 321 322 323 323 323 324 324 324 325 325 324 324 325 325 325 326 326 327 327 327 327 328 328 328 328 328 327 328 328 328 329 329 328 327 328 330 331 331 331 332 332 332 332 332 331 330
311 311 310 310 309 309 308 307 307 307 308 308 308 309 309 309 310 311 311 310 310 310 310 309 309 312 314 314 314 315 316 316 317 317 317 317 318 319 320 320 321 322 322 323 323 323 324 324 324 324 324 325 325 326 326 325 326 326 327 328 328 328 328 327 327 327 327 328 328 329 329 329 328 327 328 331 332 332 332 332 332 332 332 332 331
311 311 310 310 309 308 307 306 307 307 308 308 308 308 309 309 311 311 310 309 310 310 309 309 309 311 314 314 314 314 315 315 315 315 316 317 318 318 319 320 321 321 321 322 322 323 323 324 324 325 325 325 325 326 325 324 325 325 326 326 326 326 327 327 327 326 326 327 327 328 329 329 329 328 328 330 331 332 332 332 332 332 332 332 332
311 310 310 310 309 308 307 306 307 307 307 308 309 309 309 309 310 310 309 310 311 310 310 309 309 311 313 314 314 314 314 314 314 314 315 316 317 317 318 319 320 320 320 320 321 322 323 322 323 324 324 324 323 323 323 322 322 322 322 322 322 323 324 325 325 325 325 326 327 327 328 328 328 328 329 329 329 330 331 332 332 331 331 331 331
311 311 310 310 309 308 307 306 307 307 307 308 309 309 309 309 309 309 309 310 311 310 310 309 309 310 312 313 315 316 315 315 315 315 315 316 316 316 316 317 319 320 320 320 320 321 322 322 322 322 322 321 321 320 320 320 320 320 320 320 320 320 321 321 322 322 323 324 325 327 327 328 328 328 328 328 327 327 329 330 330 329 329 329 330
311 311 310 310 309 308 307 307 306 306 307 307 308 308 308 308 308 308 309 311 310 310 310 309 309 310 311 312 314 315 315 315 315 315 315 315 315 316 316 316 318 319 319 319 319 319 321 322 322 322 321 321 320 320 319 319 319 320 320 320 320 321 321 321 321 321 322 323 324 325 326 327 327 327 328 328 327 327 326 327 327 326 327 329 330
311 311 310 310 309 309 308 307 306 306 307 307 307 307 306 307 308 309 310 311 310 310 310 309 309 309 310 313 314 315 315 314 314 314 314 314 314 315 315 315 317 318 318 318 318 319 319 320 321 322 322 321 321 320 320 320 320 320 321 322 322 322 322 322 321 321 322 323 324 325 326 326 325 326 327 327 327 327 326 326 326 326 327 330 331
311 311 311 310 310 309 308 308 307 307 307 307 306 306 305 306 307 309 310 310 310 310 310 309 309 308 310 312 314 314 314 314 314 314 314 314 314 314 314 315 317 319 319 318 318 318 319 319 319 320 321 321 321 320 320 320 320 320 320 321 322 322 321 322 321 321 321 322 323 323 324 325 324 324 324 324 324 325 325 326 326 326 327 328 328
311 311 311 310 310 309 308 307 307 306 306 306 305 304 304 306 308 309 309 310 310 311 310 309 308 309 311 312 313 314 314 314 314 314 313 313 313 313 314 315 317 318 319 318 317 318 317 318 318 318 319 320 319 319 320 321 321 320 320 321 321 321 321 322 322 321 320 320 321 322 323 323 322 321 321 320 320 320 321 323 323 324 325 324 322
311 311 311 310 310 309 306 305 305 305 305 305 304 305 306 307 308 308 308 309 310 310 310 309 308 309 311 313 313 314 314 314 314 313 313 313 313 313 314 315 316 317 318 318 317 317 316 317 318 318 319 318 318 319 321 321 321 321 320 321 321 321 321 322 322 322 321 320 321 321 322 321 320 319 318 317 316 313 314 317 319 320 320 319 318
Wind_Speed
10 9 9 9 9 9 8 7 7 6 5 5 6 6 6 6 7 8 8 9 10 10 10 11 12 12 13 12 12 11 11 10 10 9 9 9 8 7 7 8 8 6 4 3 4 4 9 15 17 17 16 16 14 13 13 11 10 8 8 8 7 6 4 3 4 5 5 7 7 7 7 7 8 9 9 9 8 8 8 9 9 9 8 8 10
12 11 10 9 8 8 8 8 7 7 6 6 6 6 6 6 6 7 8 9 10 11 11 11 12 13 13 13 14 14 13 12 11 10 10 10 9 8 7 8 8 7 5 4 4 4 9 15 16 17 17 16 16 14 13 12 10 9 8 9 8 6 4 3 3 4 6 6 7 7 7 7 7 8 9 8 8 7 8 8 8 7 8 8 9
14 13 11 10 9 8 8 8 8 8 7 7 7 7 6 6 7 7 8 9 10 11 11 11 12 13 13 13 14 14 14 12 11 10 10 10 9 8 7 8 9 8 6 5 6 5 9 14 15 17 16 15 15 14 14 12 10 9 8 9 8 6 5 4 4 4 6 6 6 6 6 6 6 7 7 7 7 7 7 7 7 6 7 8 9
14 14 12 12 10 9 8 7 8 8 9 9 9 8 7 7 8 8 8 8 9 10 10 11 12 13 14 14 14 13 12 11 10 9 9 10 10 9 7 8 9 9 7 6 7 6 9 12 14 16 14 14 14 14 15 13 10 9 9 9 8 7 6 5 4 5 6 5 5 5 5 5 5 6 6 6 6 7 7 7 6 5 6 7 8
14 14 12 12 12 11 9 8 8 8 9 10 10 9 9 9 9 9 8 8 8 9 9 10 10 10 12 13 13 12 10 10 10 9 9 10 11 11 9 8 9 9 8 7 7 6 8 10 14 16 14 13 13 13 14 12 11 11 9 9 9 7 6 5 5 4 5 5 4 5 5 5 5 5 5 5 5 6 6 6 5 4 5 6 6
13 13 12 12 12 12 11 9 8 8 9 10 10 10 10 10 10 9 9 9 9 9 9 9 9 9 9 10 10 9 9 9 9 10 10 11 12 12 10 9 10 10 8 8 7 7 7 8 12 14 12 11 12 13 13 11 10 11 10 9 9 8 6 6 6 5 4 4 4 4 4 5 5 4 4 4 5 5 5 5 5 4 4 5 5
13 13 12 12 12 12 12 10 10 8 8 9 9 10 10 10 11 10 9 9 9 9 9 9 9 9 8 8 7 7 8 8 9 10 10 12 13 13 11 10 10 10 9 8 8 8 8 9 10 11 11 12 12 11 10 10 10 12 11 10 9 9 7 6 7 7 5 4 4 4 4 4 4 4 4 3 3 4 4 5 5 4 4 4 5
13 13 12 12 12 12 11 11 10 9 8 8 9 9 9 9 10 10 10 9 9 9 9 10 10 10 9 8 7 7 7 7 8 10 11 12 14 13 11 11 11 11 10 9 9 9 9 10 10 11 12 12 12 10 10 11 11 11 12 11 10 10 8 8 8 8 6 6 5 5 5 4 3 3 3 3 2 2 2 4 4 4 4 4 4
12 12 11 11 11 10 10 10 9 8 7 7 8 8 7 7 9 10 10 9 9 9 9 10 11 11 10 9 8 8 8 7 8 10 12 13 13 14 12 11 11 11 11 10 9 10 10 11 11 12 13 12 11 11 12 12 11 12 13 12 11 11 10 9 9 9 8 7 7 7 6 5 4 2 1 2 3 3 2 2 3 4 4 4 4
12 11 9 9 9 8 8 9 9 8 7 6 7 7 7 8 8 8 9 9 8 10 11 11 11 11 10 10 9 9 9 9 10 11 12 13 13 14 13 11 12 12 12 11 10 10 11 12 12 12 13 12 12 13 13 12 12 13 14 14 13 12 12 11 10 10 9 8 8 8 7 7 6 4 2 1 2 3 3 3 2 2 3 4 3
9 8 7 7 7 7 8 8 8 8 7 7 6 7 7 8 8 7 8 8 8 10 12 12 11 11 10 10 11 11 10 10 11 11 12 14 13 14 14 12 12 13 12 12 12 12 12 13 14 13 13 13 13 13 13 13 14 14 15 15 15 14 13 12 12 12 11 10 10 9 9 8 7 6 4 2 1 1 2 3 3 2 2 3 3
7 5 5 5 5 5 7 7 8 8 8 8 8 8 8 8 8 7 7 7 8 10 11 11 11 10 10 11 12 12 12 12 12 11 12 15 14 14 15 13 12 12 12 13 13 13 13 14 14 14 14 14 14 15 15 15 15 15 16 16 16 15 14 14 13 13 12 11 11 11 10 9 9 8 6 5 3 2 0 2 2 2 1 2 2
6 3 4 5 4 4 6 7 8 8 8 9 9 9 9 10 9 8 7 7 7 8 10 11 11 11 11 11 12 12 13 13 13 12 12 15 15 14 16 15 13 12 12 13 14 14 15 15 15 15 15 15 16 16 16 16 16 17 17 17 16 15 15 15 15 14 13 13 12 12 11 10 10 10 9 7 6 4 3 1 1 1 0 1 1
8 4 4 4 3 4 6 6 7 8 8 9 10 10 10 11 11 10 9 7 7 6 7 9 10 11 11 12 12 12 14 14 13 13 13 14 15 15 16 15 14 13 13 13 14 15 16 16 16 16 16 16 17 17 18 17 18 18 17 17 17 16 16 17 16 16 15 14 13 13 13 11 11 11 10 9 8 6 5 4 2 2 2 1 1
9 7 4 3 3 4 6 7 8 8 7 7 8 9 10 10 11 11 10 9 7 5 4 6 8 10 11 11 11 11 13 15 15 14 14 15 16 16 16 15 14 14 14 14 14 15 16 17 17 17 17 17 18 18 19 18 18 19 18 18 17 16 17 18 18 18 16 15 15 14 14 13 12 12 11 10 10 8 7 6 5 4 3 3 2
11 9 5 4 4 5 7 8 8 7 6 6 6 7 8 9 9 10 10 10 8 5 4 5 6 7 8 10 11 11 11 12 14 15 15 15 15 16 16 16 15 15 15 14 14 14 15 16 17 17 17 18 19 19 20 19 19 19 19 19 18 18 19 19 19 19 18 17 17 16 15 14 13 13 13 12 11 10 9 8 7 6 5 5 4
10 9 6 4 4 5 6 7 6 5 5 6 7 7 7 7 7 8 9 9 9 7 4 4 5 5 7 8 8 8 9 11 11 12 14 15 15 15 15 16 17 16 16 15 15 15 16 17 17 17 18 18 19 20 21 20 20 19 20 20 19 19 20 20 20 20 20 19 18 17 16 16 15 14 14 14 13 12 11 10 9 8 7 6 6
9 8 7 5 4 5 6 7 6 6 6 6 7 8 7 6 6 7 7 8 9 8 6 4 4 5 6 8 8 7 8 9 8 8 11 13 14 14 14 14 16 17 18 18 17 17 17 18 17 17 18 17 18 20 21 21 21 21 21 20 20 20 20 21 20 21 21 21 20 19 18 17 17 16 15 15 14 14 13 12 11 10 9 8 7
9 8 6 5 5 5 6 8 7 6 7 6 7 8 7 7 6 7 6 7 8 8 7 6 5 4 5 7 9 10 9 9 7 6 7 9 10 12 13 14 15 17 18 18 18 18 17 18 17 17 18 17 17 18 19 20 21 21 22 21 20 20 20 20 21 21 22 22 21 20 20 19 18 18 17 16 16 15 14 13 12 11 10 9 8
9 8 7 5 5 6 7 8 7 6 7 6 7 8 7 8 8 7 7 6 6 7 8 7 6 5 5 6 8 10 11 11 10 8 7 7 8 9 10 13 15 16 18 19 18 18 18 19 19 18 18 18 19 19 18 19 19 20 21 21 21 20 20 20 21 21 22 22 22 22 21 20 20 19 18 18 17 17 16 14 13 12 12 11 11
9 8 8 6 6 7 8 9 8 7 7 6 6 7 7 8 9 8 7 7 6 6 7 7 7 7 6 6 7 8 10 11 11 11 10 10 10 8 7 9 12 14 16 17 18 17 18 19 20 20 19 18 19 19 19 20 20 20 20 20 20 21 21 20 20 21 21 22 23 24 24 22 21 21 20 19 18 18 18 16 15 14 13 13 13
9 8 8 7 7 8 8 9 9 8 8 8 7 7 7 8 9 8 7 7 8 7 7 6 7 7 7 7 7 8 8 9 10 12 12 12 13 13 11 10 12 12 12 13 14 16 18 19 20 22 22 21 20 20 20 20 20 20 20 20 20 20 21 21 21 21 21 22 23 23 24 23 22 22 22 21 20 19 19 18 17 16 15 14 14
9 8 8 8 7 8 8 8 9 10 10 11 10 9 9 9 9 9 8 8 8 9 9 8 7 7 7 7 7 7 8 9 10 11 12 13 14 15 15 14 15 16 14 13 14 15 16 17 20 22 23 23 22 21 21 21 20 20 19 20 20 20 20 21 20 20 21 21 22 23 23 23 23 22 23 23 21 21 20 20 19 17 17 16 16
8 7 6 7 7 7 7 7 9 11 12 12 12 12 12 12 12 12 11 9 8 9 10 10 9 9 8 8 8 8 8 10 11 11 11 12 13 14 15 14 15 17 16 16 17 17 16 17 18 20 23 24 24 23 22 22 22 21 20 20 21 21 21 21 21 21 21 20 21 22 22 23 23 23 24 24 22 22 22 21 20 19 18 18 17
8 7 6 6 7 7 7 8 9 12 14 15 15 14 13 13 13 14 13 12 11 10 10 10 10 10 10 10 10 10 9 10 11 10 11 12 13 14 15 14 15 16 16 16 17 18 19 18 17 17 19 22 24 25 24 24 24 23 23 22 22 22 22 22 22 22 22 22 22 21 21 22 22 23 25 24 23 24 23 23 23 21 20 19 19
8 7 8 7 8 8 8 10 12 14 15 16 16 15 14 14 14 14 14 14 13 12 11 10 10 10 11 11 11 11 11 11 11 11 12 12 13 13 14 15 15 15 16 17 16 17 18 18 18 18 19 20 22 23 23 23 24 24 24 25 24 23 23 23 23 24 23 23 23 22 21 21 21 22 23 24 23 24 23 23 24 23 21 20 20
10 8 9 9 9 10 10 11 12 14 17 18 18 16 16 15 15 14 14 14 14 14 13 11 11 11 11 12 12 12 12 12 12 12 12 12 12 13 14 15 16 15 16 16 17 18 18 17 18 20 21 21 21 22 22 22 22 22 23 25 26 26 25 24 24 25 24 24 23 23 22 22 22 22 22 23 24 23 22 23 25 25 23 21 21
15 10 9 10 11 12 12 12 13 15 17 18 17 17 17 16 15 14 13 13 14 14 14 13 13 12 11 12 13 13 13 14 14 13 13 12 13 14 13 14 15 17 17 17 18 19 18 17 18 19 20 20 20 20 20 21 22 22 22 23 25 26 26 26 26 25 25 24 24 24 24 23 23 23 22 22 23 23 22 23 25 26 25 23 22
18 13 10 10 11 13 13 14 16 17 16 16 17 18 16 14 13 13 14 14 14 14 15 14 14 14 13 13 13 14 14 14 14 14 14 13 13 14 15 14 15 17 18 19 20 20 18 16 16 17 17 18 17 17 18 20 21 21 22 24 25 26 26 27 28 27 26 25 24 24 25 25 25 24 23 22 22 22 23 24 25 25 25 25 23
19 16 11 9 11 12 13 15 16 16 15 16 17 15 13 12 12 13 13 14 14 15 15 15 15 15 15 14 14 15 16 16 15 15 16 16 15 14 15 15 16 17 18 19 22 22 19 18 16 15 13 14 15 16 16 17 18 19 21 23 24 24 25 27 28 28 27 26 25 25 26 26 26 26 25 24 24 23 24 25 25 25 25 26 24
19 17 12 9 10 11 12 13 14 14 15 16 16 14 11 11 11 11 11 12 13 13 14 14 15 16 16 16 15 15 17 19 18 17 17 18 18 16 15 16 17 18 18 19 22 23 21 19 19 17 14 13 15 16 17 16 17 18 20 21 22 22 23 25 27 29 29 28 27 26 26 26 27 27 27 27 26 25 25 25 24 24 26 27 26
19 18 13 9 9 10 12 12 13 14 14 15 15 14 12 10 10 11 11 12 13 14 14 14 14 15 16 16 15 14 16 18 19 18 17 18 19 18 17 17 18 18 18 18 21 24 23 22 22 22 19 18 17 18 18 18 18 19 20 21 21 22 22 24 26 28 29 29 29 28 28 27 26 26 27 28 28 27 26 26 25 24 26 27 27
18 18 13 10 9 10 11 12 13 14 13 13 14 15 14 12 11 12 12 14 15 16 16 15 15 16 16 16 16 15 15 16 16 16 15 17 19 19 17 16 17 17 17 19 21 24 24 23 23 23 22 21 20 20 19 19 20 20 20 20 20 22 23 24 25 27 28 30 30 30 30 29 28 27 27 28 29 28 27 27 27 25 25 26 27
18 18 13 11 10 11 11 12 14 14 13 13 13 14 14 13 13 14 14 16 17 17 18 18 18 18 17 16 15 15 16 15 14 13 14 16 18 19 16 16 17 18 17 19 21 23 24 23 23 24 23 22 22 22 20 20 20 21 22 20 19 20 23 24 23 24 25 27 29 30 31 32 31 30 29 28 29 29 29 29 29 27 25 25 26
18 17 14 12 11 11 11 12 14 14 14 13 13 13 13 14 14 15 15 17 18 19 20 21 21 20 18 17 15 15 16 16 14 14 15 15 15 18 17 17 19 21 21 21 22 23 23 23 24 24 24 24 24 22 21 19 20 21 23 22 19 19 21 22 22 22 22 24 26 28 29 31 33 33 32 31 30 30 31 30 29 28 27 26 26
17 17 15 13 12 12 12 13 14 14 14 14 13 12 12 13 14 15 15 16 18 19 21 22 23 23 20 17 14 13 16 17 17 16 16 15 15 18 19 19 20 20 20 20 20 22 23 23 24 24 23 24 25 23 21 20 20 21 23 24 22 20 19 20 21 22 22 23 24 26 27 29 31 32 33 33 31 31 32 31 30 30 29 28 28
17 16 15 15 14 13 13 14 14 14 14 14 14 12 12 14 15 15 15 16 18 19 20 22 23 23 22 18 14 13 14 16 17 16 15 15 15 17 19 19 19 19 18 18 18 19 20 20 23 24 24 24 25 25 23 20 19 20 22 24 24 23 21 20 20 20 20 20 21 22 24 27 29 31 32 33 32 32 32 32 31 31 31 30 29
17 16 15 16 15 15 15 16 16 15 14 14 14 13 14 15 15 15 15 16 17 18 19 21 21 21 21 17 12 10 12 14 15 15 14 13 14 17 18 19 19 18 18 17 17 19 21 21 22 23 23 23 24 24 22 20 19 20 21 22 24 24 24 23 22 20 19 18 19 20 22 24 27 30 32 33 33 33 33 32 31 31 31 31 30
17 17 16 16 16 16 17 18 17 16 16 15 14 14 15 15 16 16 15 15 16 17 18 19 19 19 18 15 10 8 9 11 14 15 15 15 17 19 19 18 18 17 17 16 16 17 19 21 21 21 22 22 21 20 20 19 18 19 20 21 23 23 24 24 24 23 22 22 21 21 22 23 25 28 31 33 34 33 33 32 32 31 31 30 30
17 17 16 16 17 17 18 19 18 17 16 16 15 15 15 15 16 16 14 14 15 17 18 18 17 16 14 11 8 7 8 11 15 16 15 15 17 19 18 16 16 16 16 16 16 16 17 19 20 20 20 21 20 19 19 18 18 19 19 20 22 22 23 24 24 24 24 25 24 24 23 23 24 26 28 29 30 31 31 32 33 33 32 31 30
17 17 16 17 17 18 19 20 18 16 16 16 16 15 15 16 16 15 13 14 15 17 19 18 16 13 10 8 8 8 9 10 12 13 13 15 17 18 17 16 15 15 15 16 16 17 17 17 18 19 20 21 22 22 20 19 19 19 18 19 21 22 22 24 24 23 24 25 25 25 24 25 24 22 23 26 28 30 31 32 33 34 33 32 31
16 16 16 17 18 19 20 20 17 15 15 15 15 14 15 15 15 13 13 14 15 17 19 18 16 12 7 6 7 8 9 10 10 11 13 16 17 17 17 17 15 15 15 15 15 15 15 16 17 18 19 21 22 21 20 19 18 18 17 18 21 21 21 23 24 23 22 23 23 25 26 26 24 22 22 24 26 28 30 32 33 33 33 33 32
16 16 16 17 17 18 20 19 17 15 15 15 14 13 13 13 13 13 13 14 15 17 18 19 17 12 7 6 8 9 10 11 12 12 13 14 15 15 15 15 15 15 15 15 15 15 15 15 15 16 15 15 15 16 16 16 16 16 16 16 18 20 21 22 23 22 21 19 20 22 24 26 26 25 23 23 24 27 29 31 32 33 32 32 32
15 15 16 17 17 18 19 18 16 15 16 14 12 12 12 12 13 14 14 15 16 16 17 18 17 12 9 8 9 10 12 14 15 16 15 14 13 13 13 13 14 14 15 15 15 14 14 12 12 12 12 12 12 12 13 13 13 13 13 13 15 17 18 20 22 22 20 18 17 19 22 24 25 26 25 24 24 25 28 30 31 31 30 30 32
14 15 16 16 17 18 18 17 15 14 14 12 11 11 12 12 13 14 14 15 17 17 17 18 17 13 10 9 10 10 12 15 16 17 17 15 14 13 12 12 13 13 13 14 14 14 13 11 10 10 10 10 10 10 11 10 10 11 11 12 12 14 15 16 18 19 19 18 17 17 19 22 24 26 27 26 25 25 26 28 29 29 28 28 30
14 15 16 16 17 17 17 17 16 14 13 12 12 13 13 13 13 14 15 17 18 17 16 18 18 13 10 10 11 10 10 13 14 15 15 15 14 14 13 13 13 12 11 12 12 13 14 13 13 12 11 10 10 11 11 11 11 12 13 13 13 13 14 15 15 16 16 17 16 17 18 20 22 24 26 27 26 26 26 27 27 28 28 28 28
14 15 16 17 17 17 17 17 17 15 13 12 13 13 15 15 14 14 16 17 17 16 16 18 18 14 11 11 11 10 10 12 14 15 14 14 14 14 13 13 13 10 9 10 10 11 13 15 17 16 13 11 11 12 12 12 11 11 11 12 12 13 13 14 14 14 14 14 15 17 18 20 21 22 24 26 27 27 27 27 27 27 28 28 28
15 15 16 17 17 18 17 17 17 17 15 14 14 15 16 16 14 15 17 17 17 16 17 19 18 14 11 11 11 10 10 12 14 16 16 15 14 14 13 13 12 9 8 9 9 9 10 13 16 17 15 13 13 12 11 10 9 7 6 7 8 8 9 11 12 14 14 14 15 16 17 18 20 21 22 24 25 26 27 27 26 25 25 26 27
15 16 16 17 18 18 18 17 17 18 17 15 15 17 17 15 14 16 17 17 18 18 18 20 19 14 11 11 11 11 11 12 13 15 16 16 15 15 14 13 10 6 8 11 11 10 10 11 13 14 14 13 12 10 9 9 7 5 5 5 5 5 6 8 10 11 12 13 13 14 15 16 19 20 20 21 21 22 22 23 23 23 22 22 23
15 16 16 17 18 19 19 18 17 17 16 16 16 17 15 14 14 16 17 18 19 19 19 21 19 13 11 12 12 11 11 12 13 14 15 15 15 15 14 12 8 6 7 10 12 13 12 10 10 9 9 9 10 9 8 7 6 5 5 5 4 5 6 7 7 6 7 8 9 10 13 17 19 20 19 17 15 14 14 15 16 17 16 15 13
15 15 16 18 19 19 18 17 15 15 15 15 15 13 12 12 14 16 18 19 20 20 20 21 20 13 10 12 13 13 11 11 13 14 15 15 15 15 14 12 10 8 8 9 12 13 10 7 6 6 7 8 9 8 5 3 4 4 3 2 2 3 6 6 5 4 5 5 5 7 12 17 19 19 18 16 13 11 10 10 10 10 10 9 9
Wind_Direction
329 322 318 314 309 306 303 296 290 288 288 287 287 288 288 277 263 255 250 251 248 245 246 247 248 247 245 243 245 256 261 263 264 259 234 216 215 211 191 169 178 198 191 191 210 215 208 199 193 190 189 185 182 181 178 180 188 191 179 175 182 174 159 156 156 147 132 119 112 110 104 95 93 88 87 92 86 92 116 124 125 129 128 114 106
341 334 327 322 317 313 306 300 290 280 280 280 277 278 282 281 273 265 257 255 252 248 247 247 247 248 248 247 250 259 262 259 257 249 231 217 212 208 198 178 179 199 196 181 201 204 198 200 198 194 194 191 185 182 182 185 189 192 188 185 187 182 164 157 174 162 143 129 119 116 111 101 95 91 88 90 88 87 105 120 128 134 130 123 120
341 341 337 330 321 315 307 300 291 279 275 272 269 270 273 276 273 269 267 265 257 250 249 248 247 248 248 248 252 259 260 252 244 236 225 215 211 209 202 186 184 198 201 186 194 192 190 199 203 196 196 197 188 185 189 187 189 193 197 196 191 188 173 164 193 178 148 133 124 120 115 111 104 99 96 94 89 89 100 112 123 130 133 135 135
336 335 335 333 326 320 313 301 291 279 272 268 269 270 267 268 268 265 267 269 258 247 247 248 248 249 248 249 251 255 253 239 231 227 221 214 210 209 203 190 187 196 206 195 189 192 189 194 204 200 196 198 195 195 194 187 192 200 202 203 195 192 183 178 201 189 159 141 130 125 119 117 112 110 110 107 98 93 97 103 111 115 131 144 140
331 331 332 332 328 323 319 312 298 283 273 269 270 270 265 264 264 262 261 259 255 249 250 250 248 250 249 247 245 245 239 228 226 225 224 218 209 207 206 195 188 192 206 205 191 193 190 190 203 203 197 198 202 209 201 188 197 205 207 208 200 195 189 190 211 205 175 156 143 132 126 120 115 120 119 119 114 106 104 103 101 91 108 135 135
322 325 327 326 325 321 318 317 310 299 286 276 271 271 266 263 260 259 257 253 252 254 257 257 249 248 247 241 236 237 233 230 232 230 227 217 206 208 208 198 190 190 202 210 199 194 192 191 201 201 197 197 205 216 207 194 202 206 211 211 201 199 194 197 214 217 198 173 158 142 137 130 118 119 118 120 126 122 115 107 101 87 88 118 135
315 316 319 319 320 318 314 312 310 308 303 289 281 278 272 266 260 255 255 252 250 252 257 259 251 246 243 235 229 233 233 237 242 235 224 210 204 209 209 199 191 188 196 208 207 201 196 196 199 198 198 200 204 213 209 207 208 205 212 211 201 203 200 203 216 218 210 194 180 163 153 146 126 114 105 102 120 132 128 112 106 97 82 100 128
309 313 316 317 318 318 316 312 307 304 306 302 297 292 280 268 259 252 248 246 247 251 259 263 258 249 241 234 230 233 232 237 248 238 220 206 204 208 206 198 192 189 193 201 208 208 204 200 201 201 203 204 204 206 209 213 211 204 212 212 204 207 208 211 216 219 218 207 197 187 175 167 153 121 99 85 72 82 111 112 107 99 84 82 101
304 309 312 315 316 316 315 311 306 300 298 299 303 304 295 275 259 251 243 239 245 254 262 262 261 255 242 234 232 235 235 235 245 236 217 205 202 204 204 199 193 191 193 196 204 211 211 208 206 207 208 208 205 206 209 213 212 207 212 214 209 210 212 214 215 219 224 216 207 203 194 185 183 174 117 87 67 45 34 74 97 96 88 78 78
302 305 306 308 310 311 310 306 300 295 291 289 297 305 304 290 275 263 250 240 242 252 259 258 257 257 248 239 234 233 235 237 239 233 218 209 205 205 204 200 197 194 194 196 200 208 214 214 213 213 213 213 212 212 212 213 214 212 212 213 211 212 216 218 217 218 222 221 216 214 212 201 195 201 204 123 80 65 38 37 56 79 90 84 77
301 305 301 292 297 300 298 299 295 292 289 284 286 293 298 298 293 284 270 256 243 245 253 256 254 255 252 247 241 234 232 234 237 233 222 214 213 211 206 202 201 199 197 198 202 207 213 217 218 219 219 219 220 220 216 214 217 218 217 216 213 213 217 221 223 221 220 220 220 220 221 216 208 208 211 215 170 96 51 38 39 45 66 79 77
310 294 289 281 291 298 293 295 295 292 291 284 279 282 287 293 297 296 287 275 255 244 248 253 251 250 251 250 246 238 230 229 233 232 224 218 218 217 211 207 206 204 202 203 206 210 214 219 221 222 223 224 225 225 223 220 221 223 224 224 219 216 218 221 225 227 223 219 222 224 224 224 220 216 215 218 219 209 123 45 39 33 41 75 72
339 287 271 277 293 307 300 297 300 300 297 293 287 282 282 284 292 299 296 286 266 251 248 250 249 248 247 248 248 242 233 229 231 231 225 220 219 218 215 215 216 212 208 207 209 211 213 218 223 224 224 226 227 228 229 226 223 225 227 229 227 224 224 223 226 230 229 224 223 226 226 228 228 224 220 220 223 225 216 206 97 85 81 106 95
358 329 288 287 303 316 314 311 313 314 307 303 296 288 285 281 284 291 294 291 281 266 255 252 250 246 243 245 247 245 238 232 232 232 229 224 221 218 217 221 225 223 220 215 213 214 214 216 221 224 225 227 228 229 231 230 227 228 229 231 233 232 231 230 228 229 230 230 227 226 228 232 233 231 228 225 227 228 223 224 211 177 177 165 137
2 349 326 320 331 325 328 333 326 323 320 313 302 293 289 285 283 286 290 292 295 294 276 260 252 245 240 240 243 245 243 239 236 234 233 229 226 223 221 223 229 228 227 226 222 220 219 218 220 223 225 226 228 230 232 232 231 232 233 235 235 235 235 234 232 229 227 231 230 226 227 231 234 234 234 232 231 231 228 229 229 210 190 189 191
3 1 356 348 342 329 333 337 328 328 343 341 329 318 308 300 291 285 286 289 293 301 297 277 262 247 235 231 233 238 242 242 240 237 235 234 231 230 226 225 230 231 231 232 231 228 226 223 221 223 226 228 229 230 232 232 233 235 237 239 238 237 238 237 236 234 229 229 230 228 228 229 232 233 234 236 235 233 230 229 232 228 209 198 200
4 6 9 4 355 346 340 337 331 340 357 355 347 341 331 321 308 296 287 285 288 292 301 295 275 255 236 227 227 234 240 241 242 237 234 234 232 231 229 226 229 231 233 234 233 230 228 227 226 225 226 228 230 231 232 232 233 235 238 240 240 239 241 242 238 237 234 231 230 231 232 231 231 231 233 237 240 237 234 231 230 232 226 210 202
0 6 11 8 358 349 341 336 338 350 357 356 348 343 346 342 330 315 294 284 286 286 291 298 284 264 247 237 231 234 241 244 247 243 236 235 233 230 230 230 231 233 235 236 236 234 233 235 234 229 226 224 227 230 232 233 233 235 236 239 241 240 242 246 244 242 239 236 232 232 233 233 232 231 233 237 241 240 238 234 232 232 232 224 210
350 356 358 2 353 337 333 332 335 346 351 354 350 348 353 349 340 335 315 295 292 288 282 287 291 275 256 249 243 241 244 246 250 254 248 240 234 231 233 234 235 237 241 242 243 242 241 243 240 233 229 225 225 228 231 233 234 236 236 237 238 240 241 245 248 248 245 242 238 236 235 234 234 232 231 234 238 240 240 238 235 232 232 230 222
344 339 336 346 344 325 327 334 334 337 341 348 350 352 354 342 337 339 329 310 303 302 291 282 285 286 272 260 252 248 250 252 252 257 269 265 248 236 233 234 235 238 244 248 248 247 245 245 243 237 232 230 228 228 232 234 235 236 237 237 237 238 239 241 245 248 249 247 244 243 239 235 235 234 231 233 237 240 241 240 236 232 231 231 228
346 335 329 327 325 323 329 338 342 339 339 343 342 345 344 335 331 331 325 316 309 313 314 298 284 284 285 278 267 256 250 252 253 253 261 269 268 259 242 237 239 239 243 247 249 249 246 244 241 235 233 234 232 231 233 236 238 238 238 238 238 238 239 240 241 245 248 248 246 246 243 236 234 234 232 232 235 239 241 241 239 235 233 232 231
348 336 328 322 317 326 331 334 344 346 342 341 340 340 340 331 329 328 323 319 310 305 315 319 300 284 281 282 282 279 267 256 251 251 253 258 263 264 259 255 254 248 245 248 249 249 248 245 240 234 232 235 234 233 234 237 242 243 242 240 239 239 240 240 241 243 245 247 247 248 247 243 239 236 233 231 232 236 239 241 242 240 238 236 234
347 334 327 329 321 322 328 330 341 343 338 341 343 344 344 337 330 328 324 318 312 305 304 309 307 295 286 280 276 284 284 271 261 257 258 260 262 264 266 267 264 254 248 250 251 251 250 248 243 237 234 236 237 235 236 239 243 246 246 243 242 241 241 240 241 242 244 246 248 247 248 248 245 241 237 234 232 233 236 240 242 242 241 240 238
348 339 320 322 318 317 323 326 336 337 335 340 342 341 340 335 329 330 332 326 313 305 303 303 302 296 291 284 271 269 275 276 273 268 265 265 265 266 267 269 268 260 253 250 251 252 252 251 249 243 238 238 240 241 242 243 244 245 246 245 245 244 243 241 240 241 244 246 247 246 246 248 247 246 243 237 234 233 235 238 241 242 242 242 241
351 351 332 316 321 331 328 323 328 329 327 331 333 335 335 330 327 325 328 329 323 311 304 304 304 298 294 289 281 275 272 271 274 270 264 262 260 263 265 265 266 268 266 258 253 252 251 250 251 249 244 242 243 244 246 247 247 246 247 247 247 247 247 245 243 242 243 244 246 246 246 247 246 246 246 242 237 236 235 236 239 240 242 243 242
344 337 334 324 325 333 326 318 320 320 320 323 324 326 326 323 320 318 319 321 322 319 310 302 299 297 293 291 288 286 281 275 271 267 264 262 261 263 267 268 269 271 272 268 261 256 251 247 247 248 249 249 247 247 247 247 247 247 247 248 247 247 247 247 246 244 243 244 245 245 246 247 246 245 246 244 241 238 236 237 239 240 241 243 242
347 319 317 316 313 312 308 305 309 314 318 320 319 320 320 316 311 311 312 312 312 313 311 305 297 291 288 288 288 288 288 283 278 273 268 265 264 262 264 270 273 273 274 274 270 264 257 249 244 245 249 252 253 253 252 251 250 248 248 248 247 245 245 245 246 246 244 243 244 245 245 246 246 246 245 244 243 240 238 240 242 242 241 242 244
352 328 307 305 306 305 303 305 309 315 318 317 318 319 317 311 305 304 305 306 307 307 307 305 300 291 283 282 283 284 287 286 285 283 275 266 263 260 258 261 268 274 276 275 275 275 269 259 250 246 248 251 254 256 256 255 254 253 251 251 250 248 244 243 243 245 246 244 244 246 247 245 245 246 245 243 242 240 240 241 242 243 242 242 245
351 341 317 301 301 302 304 308 314 320 322 321 323 323 318 310 304 302 302 303 304 304 304 303 300 294 285 279 277 276 278 281 287 289 284 276 267 262 259 256 258 266 273 276 278 279 277 274 266 256 250 249 249 250 251 253 254 254 253 254 254 252 248 245 242 243 246 246 246 247 247 246 245 246 245 242 239 237 238 240 241 242 242 243 246
347 345 330 307 301 302 304 309 316 322 325 329 333 331 325 319 313 310 308 307 307 305 303 300 296 293 286 280 276 274 274 275 279 285 285 283 276 269 265 261 259 259 264 272 277 277 277 279 279 272 260 248 245 245 245 247 249 251 252 253 254 254 252 248 243 242 244 245 246 246 246 246 245 245 245 243 241 238 238 239 240 241 241 242 244
344 343 334 316 305 303 306 312 318 324 329 337 343 343 339 335 332 333 332 329 327 323 317 310 301 294 286 280 277 279 279 277 278 282 284 285 283 276 268 261 259 259 260 265 271 274 275 276 277 278 269 255 247 246 245 245 247 251 253 254 253 253 253 249 245 243 243 244 245 245 245 244 244 245 245 244 244 242 240 239 239 238 240 242 243
342 343 336 324 311 305 309 315 320 327 333 340 346 348 350 349 346 348 349 347 343 338 333 327 318 307 293 280 274 275 279 279 281 285 287 289 290 286 278 269 263 263 263 264 267 270 271 273 275 277 275 268 261 254 251 249 249 252 257 258 257 254 250 248 247 244 243 243 244 244 243 243 243 243 244 244 244 243 243 241 238 236 238 240 242
339 345 339 329 321 314 313 315 321 329 331 334 340 343 344 345 346 349 349 346 344 339 335 331 327 321 308 290 274 267 272 276 279 284 289 293 294 294 289 282 277 271 265 264 267 269 270 271 272 273 273 272 266 260 256 253 250 253 258 262 263 258 252 250 251 250 247 246 244 242 241 241 242 242 242 243 243 243 243 241 237 235 235 237 240
336 347 345 334 328 323 321 322 326 330 328 324 327 333 337 338 341 346 345 343 342 340 336 333 330 327 319 305 283 263 260 266 272 278 284 288 291 294 290 283 280 275 267 265 267 270 270 271 273 274 274 273 269 265 263 258 253 252 255 259 261 259 255 252 252 253 253 251 248 245 242 241 241 242 242 242 242 241 241 240 239 237 235 235 238
330 346 352 344 335 330 329 329 329 330 328 322 318 321 329 333 334 338 339 338 340 339 337 336 333 330 324 314 295 267 254 260 268 273 281 286 290 292 291 284 278 273 270 268 268 270 272 272 275 277 277 276 274 270 267 261 255 252 253 254 256 257 256 252 250 248 247 246 247 247 245 243 242 242 242 241 241 239 239 240 240 239 237 237 238
323 339 351 349 343 337 332 330 329 329 327 324 320 319 324 327 327 329 332 334 337 338 337 336 334 331 327 319 303 274 252 254 263 269 279 288 290 288 287 285 281 277 275 272 267 269 273 273 274 276 276 276 275 273 270 265 259 256 254 253 253 255 255 253 249 246 243 242 243 245 246 245 244 242 242 242 241 239 237 238 239 239 238 238 239
318 331 342 343 340 336 332 328 325 325 324 322 319 318 322 325 322 322 326 330 333 336 337 336 333 330 327 322 306 277 253 251 261 269 278 284 286 289 290 287 284 280 276 272 267 264 268 272 273 273 274 274 273 274 275 273 265 257 255 254 253 254 255 253 250 247 245 245 245 247 248 247 247 245 243 242 241 239 237 236 236 237 237 238 240
314 325 334 336 332 330 330 326 320 318 319 318 316 314 316 322 323 320 320 325 331 336 337 336 334 330 326 323 310 278 254 254 261 268 277 279 280 290 295 290 284 280 275 272 267 263 264 269 274 275 275 273 272 272 273 272 266 257 253 252 252 251 252 253 251 248 246 247 250 252 252 252 252 250 247 244 241 238 236 235 235 235 236 237 239
311 320 325 327 326 325 327 325 318 312 310 311 313 310 309 317 323 319 317 322 329 335 338 337 335 331 326 324 317 282 256 257 261 268 277 276 276 286 295 293 286 281 280 278 273 268 267 269 272 274 275 274 273 272 270 268 263 256 252 252 251 249 250 252 252 251 249 249 251 254 256 258 257 254 251 247 243 239 236 235 234 234 235 237 238
309 317 318 319 319 320 325 325 317 308 306 306 309 308 304 310 318 316 315 321 328 335 338 338 339 334 326 325 321 293 270 264 265 272 280 281 283 291 299 299 290 283 282 284 281 276 272 270 270 270 272 276 278 275 271 267 261 257 254 254 255 252 251 253 254 253 252 252 253 254 256 259 258 255 254 253 250 245 240 236 235 234 234 235 237
308 312 313 314 314 318 325 326 316 306 303 301 303 304 301 305 313 314 315 321 328 335 337 338 341 338 327 322 318 301 291 285 279 283 289 290 296 303 306 304 296 286 283 285 287 286 279 273 272 271 269 273 275 273 269 266 263 262 260 256 256 256 255 255 255 254 254 253 253 253 254 256 260 260 258 255 251 246 241 238 237 236 235 235 236
305 308 309 309 313 319 326 327 319 308 305 303 300 298 298 304 312 316 320 324 329 333 334 335 340 341 328 312 308 303 303 305 305 305 299 292 294 301 306 306 299 288 281 280 284 290 289 282 277 274 268 266 269 272 273 269 264 263 262 257 254 256 257 257 256 254 253 255 256 256 256 258 262 263 257 252 248 244 241 240 239 237 236 236 236
305 306 305 307 312 319 325 328 322 314 311 309 303 298 299 307 314 318 321 323 324 328 332 333 335 338 329 305 301 306 307 303 302 304 304 298 292 293 300 304 299 289 282 279 280 286 291 289 281 273 267 265 270 274 276 273 265 259 259 257 256 257 258 258 258 255 254 256 259 261 261 260 260 260 257 252 248 243 240 239 239 238 237 237 238
305 303 305 308 313 318 324 327 323 317 318 316 308 304 307 311 314 317 320 319 319 324 330 332 332 333 328 310 299 300 301 298 296 300 307 308 297 291 297 302 299 291 285 280 275 276 283 286 279 269 261 259 263 264 264 265 262 258 256 255 256 258 258 257 258 260 260 260 262 264 266 264 261 260 258 254 250 245 242 240 239 240 240 239 238
303 303 307 310 313 316 321 324 320 318 326 330 322 314 313 312 312 314 316 315 316 320 328 332 331 328 325 317 307 299 293 292 293 295 299 304 299 293 295 298 295 289 285 281 272 269 274 277 276 269 259 254 258 261 262 263 262 262 261 261 262 264 264 261 260 263 265 264 264 268 271 270 265 262 260 257 253 249 246 243 242 243 245 245 243
306 308 310 311 313 315 318 319 315 311 315 320 316 310 308 308 307 309 310 311 314 319 325 331 330 322 314 311 313 313 304 300 300 296 293 296 296 291 290 290 290 288 287 285 277 268 265 265 265 262 257 257 260 263 267 270 271 270 267 267 266 266 266 267 266 266 265 262 259 262 267 269 267 264 261 259 257 253 250 247 246 246 247 248 247
311 311 311 312 313 315 315 315 312 308 305 305 305 305 305 304 301 303 308 311 314 318 323 330 329 318 303 298 303 311 310 306 307 305 300 296 291 288 285 282 285 291 294 293 287 277 270 264 262 259 254 253 257 262 268 272 274 274 271 268 267 265 264 265 264 265 267 265 259 256 260 264 264 261 258 257 258 256 253 251 250 249 250 249 246
314 312 311 313 314 313 312 310 308 307 303 299 300 303 305 305 301 302 308 312 315 317 322 329 327 313 296 290 292 298 303 303 303 302 302 301 296 293 289 280 278 291 308 308 303 295 285 273 266 264 261 256 256 259 263 267 269 270 268 264 263 266 269 268 265 262 260 260 258 257 258 259 257 254 251 251 253 253 253 254 253 253 253 250 244
315 313 313 313 313 312 310 306 304 304 302 300 299 300 301 301 300 304 309 311 314 317 321 327 327 312 287 281 283 287 293 297 299 300 301 301 301 301 296 285 277 289 313 314 311 306 297 283 272 268 264 262 261 257 254 257 260 254 244 243 249 258 267 272 271 265 260 257 257 258 257 252 247 245 241 240 242 243 244 246 248 248 247 244 239
316 315 313 312 313 313 308 304 302 302 303 305 306 304 298 293 293 302 308 310 314 318 319 324 327 312 278 272 276 280 287 290 293 300 303 303 304 305 302 292 280 286 302 304 307 311 307 296 282 265 252 254 260 255 247 246 247 238 234 240 251 263 271 274 276 277 270 260 253 252 248 240 234 232 227 219 215 217 220 225 230 231 227 223 221
315 313 311 311 315 315 310 303 301 303 307 311 312 309 302 296 297 302 305 307 312 316 317 321 324 312 277 272 276 276 281 286 291 298 304 306 307 308 303 290 276 278 287 288 297 307 308 300 290 265 238 234 239 238 229 223 233 236 245 261 270 289 292 282 277 295 298 284 269 252 238 231 226 220 211 199 178 157 158 172 179 185 186 178 163